Teterboro, NJ

7:00 PM EST on February 19, 2017 (GMT -0500)
Teterboro

Weather History for KTEB - November, 2012

Change the Weather History Date:

Saturday, November 17, 2012

  Actual Average Record
Temperature  
Mean Temperature 43 °F -  
Max Temperature 53 °F 51 °F 66 °F (2006)
Min Temperature 33 °F 35 °F 25 °F (1997)
Degree Days  
Heating Degree Days 22    
Moisture  
Dew Point 28 °F    
Average Humidity 57    
Maximum Humidity 72    
Minimum Humidity 40    
Precipitation  
Precipitation 0.00 in - - ()
Sea Level Pressure  
Sea Level Pressure 30.57 in    
Wind  
Wind Speed 5 mph (North)    
Max Wind Speed 10 mph    
Max Gust Speed -    
Visibility 10 miles    
Events      
Averages and records for this station are not official NWS values.
T = Trace of Precipitation, MM = Missing Value Source: NWS Daily Summary

Daily Weather History Graph

Daily Weather History Graph

Search for Another Location

Airport or City:

Trip Planner

Search our weather history database for the weather conditions in past years. The results will help you decide how hot, cold, wet, or windy it might be!

Date:

Astronomy

Nov. 17, 2012 Rise Set
Actual Time 6:46 AM EST 4:35 PM EST
Civil Twilight 6:16 AM EST 5:05 PM EST
Nautical Twilight 5:43 AM EST 5:38 PM EST
Astronomical Twilight 5:10 AM EST 6:11 PM EST
Moon 10:28 AM EST (11/17) 8:42 PM EST (11/17)
Length of Visible Light 10h 48m
Length of Day
9h 49m
Waxing Crescent, 20% of the Moon is Illuminated
Nov 17
Waxing Crescent
Nov 20
First Quarter
Nov 28
Full
Dec 6
Last Quarter
Dec 13
New

Hourly Weather History & Observations

Time (EST) Temp. Windchill Dew Point Humidity Pressure Visibility Wind Dir Wind Speed Gust Speed Precip Events Conditions
12:51 AM 34.0 °F 28.8 °F 25.0 °F 70% 30.45 in 10.0 mi NNW 5.8 mph - N/A   Clear
1:51 AM 35.1 °F 32.2 °F 25.0 °F 67% 30.45 in 10.0 mi NNW 3.5 mph - N/A   Clear
2:51 AM 35.1 °F 31.0 °F 25.0 °F 67% 30.46 in 10.0 mi NNW 4.6 mph - N/A   Clear
3:51 AM 34.0 °F 28.8 °F 25.0 °F 70% 30.48 in 10.0 mi NNW 5.8 mph - N/A   Clear
4:51 AM 35.1 °F 30.1 °F 25.0 °F 67% 30.51 in 10.0 mi North 5.8 mph - N/A   Clear
5:51 AM 33.1 °F 30.0 °F 25.0 °F 72% 30.53 in 10.0 mi NW 3.5 mph - N/A   Clear
6:51 AM 33.1 °F - 25.0 °F 72% 30.56 in 10.0 mi Calm Calm - N/A   Clear
7:51 AM 39.9 °F 34.5 °F 28.0 °F 63% 30.58 in 10.0 mi North 8.1 mph - N/A   Clear
8:51 AM 43.0 °F 37.2 °F 28.9 °F 58% 30.60 in 10.0 mi NNE 10.4 mph - N/A   Clear
9:51 AM 46.9 °F - 30.0 °F 52% 30.61 in 10.0 mi NNE 6.9 mph - N/A   Clear
10:51 AM 48.2 °F - 30.2 °F 50% 30.61 in 10.0 mi NE 6.9 mph - N/A   Clear
11:51 AM 51.1 °F - 30.0 °F 44% 30.59 in 10.0 mi NE 6.9 mph - N/A   Clear
12:51 PM 52.0 °F - 28.9 °F 41% 30.58 in 10.0 mi ENE 4.6 mph - N/A   Clear
1:51 PM 53.1 °F - 30.0 °F 41% 30.57 in 10.0 mi Calm Calm - N/A   Clear
2:51 PM 53.1 °F - 28.9 °F 40% 30.57 in 10.0 mi Variable 5.8 mph - N/A   Clear
3:51 PM 52.0 °F - 28.9 °F 41% 30.58 in 10.0 mi NE 5.8 mph - N/A   Clear
4:51 PM 50.0 °F - 28.0 °F 43% 30.59 in 10.0 mi Calm Calm - N/A   Clear
5:51 PM 48.0 °F - 28.9 °F 48% 30.60 in 10.0 mi NNE 4.6 mph - N/A   Clear
6:51 PM 46.4 °F 45.2 °F 28.4 °F 50% 30.60 in 10.0 mi NNE 3.5 mph - N/A   Clear
7:51 PM 45.0 °F - 28.9 °F 53% 30.62 in 10.0 mi Calm Calm - N/A   Clear
8:51 PM 43.0 °F 39.5 °F 30.0 °F 60% 30.62 in 10.0 mi North 5.8 mph - N/A   Clear
9:51 PM 42.1 °F - 30.0 °F 62% 30.62 in 10.0 mi Calm Calm - N/A   Clear
10:51 PM 41.0 °F - 30.0 °F 65% 30.63 in 10.0 mi Calm Calm - N/A   Clear
11:51 PM 39.9 °F 37.8 °F 30.0 °F 68% 30.63 in 10.0 mi NNE 3.5 mph - N/A   Clear